Time,TemperatureF,DewpointF,PressureIn,WindDirection,WindDirectionDegrees,WindSpeedMPH,WindSpeedGustMPH,Humidity,HourlyPrecipIn,Conditions,Clouds,dailyrainin,SoftwareType,DateUTC
2013-10-11 00:01:00,55.0,55.0,30.03,North,0,0.0,0.0,100,0.00,,---,0.00,VWS V14.00,2013-10-11 05:01:00,
2013-10-11 00:06:00,55.0,55.0,30.03,North,0,0.0,0.0,100,0.00,,---,0.00,VWS V14.00,2013-10-11 05:06:00,
2013-10-11 00:11:00,55.0,55.0,30.03,North,0,0.0,0.0,100,0.00,,---,0.00,VWS V14.00,2013-10-11 05:11:00,
2013-10-11 00:16:00,55.0,55.0,30.03,North,0,0.0,0.0,100,0.00,,---,0.00,VWS V14.00,2013-10-11 05:16:00,
2013-10-11 00:21:00,55.0,55.0,30.03,NE,45,0.0,0.0,100,0.00,,---,0.00,VWS V14.00,2013-10-11 05:21:00,
2013-10-11 00:26:00,55.0,55.0,30.03,NE,45,0.0,0.0,100,0.00,,---,0.00,VWS V14.00,2013-10-11 05:26:00,
2013-10-11 00:31:00,54.0,54.0,30.03,NE,45,0.0,0.0,100,0.00,,---,0.00,VWS V14.00,2013-10-11 05:31:00,
2013-10-11 00:36:00,54.0,54.0,30.03,NE,45,0.0,0.0,100,0.00,,---,0.00,VWS V14.00,2013-10-11 05:36:00,
2013-10-11 00:41:00,54.0,54.0,30.03,NE,45,0.0,0.0,100,0.00,,---,0.00,VWS V14.00,2013-10-11 05:41:00,
2013-10-11 00:46:00,54.0,54.0,30.03,NE,45,0.0,0.0,100,0.00,,---,0.00,VWS V14.00,2013-10-11 05:46:00,
2013-10-11 00:51:00,54.0,54.0,30.03,ENE,68,3.0,3.0,100,0.00,,---,0.00,VWS V14.00,2013-10-11 05:51:00,
2013-10-11 00:56:00,54.0,54.0,30.03,East,90,0.0,0.0,100,0.00,,---,0.00,VWS V14.00,2013-10-11 05:56:00,
2013-10-11 01:01:00,55.0,55.0,30.03,NE,45,0.0,0.0,100,0.00,,---,0.00,VWS V14.00,2013-10-11 06:01:00,
2013-10-11 01:06:00,55.0,55.0,30.03,NNE,22,0.0,0.0,100,0.00,,---,0.00,VWS V14.00,2013-10-11 06:06:00,
2013-10-11 01:11:00,53.0,53.0,30.03,ENE,68,0.0,0.0,100,0.00,,---,0.00,VWS V14.00,2013-10-11 06:11:00,
2013-10-11 01:16:00,54.0,54.0,30.03,NE,45,0.0,0.0,100,0.00,,---,0.00,VWS V14.00,2013-10-11 06:16:00,
2013-10-11 01:21:00,54.0,54.0,30.03,NE,45,0.0,0.0,100,0.00,,---,0.00,VWS V14.00,2013-10-11 06:21:00,
2013-10-11 01:26:00,55.0,55.0,30.03,NNE,22,0.0,0.0,100,0.00,,---,0.00,VWS V14.00,2013-10-11 06:26:00,
2013-10-11 01:31:00,54.0,54.0,30.03,NNE,22,0.0,0.0,100,0.00,,---,0.00,VWS V14.00,2013-10-11 06:31:00,
2013-10-11 01:36:00,54.0,54.0,30.03,NE,45,0.0,0.0,100,0.00,,---,0.00,VWS V14.00,2013-10-11 06:36:00,
2013-10-11 01:41:00,54.0,54.0,30.03,ENE,68,0.0,0.0,100,0.00,,---,0.00,VWS V14.00,2013-10-11 06:41:00,
2013-10-11 01:46:00,54.0,54.0,30.03,NE,45,0.0,0.0,100,0.00,,---,0.00,VWS V14.00,2013-10-11 06:46:00,
2013-10-11 01:51:00,54.0,54.0,30.03,NNE,22,0.0,0.0,100,0.00,,---,0.00,VWS V14.00,2013-10-11 06:51:00,
2013-10-11 01:56:00,54.0,54.0,30.03,ESE,112,0.0,0.0,100,0.00,,---,0.00,VWS V14.00,2013-10-11 06:56:00,
2013-10-11 02:01:00,54.0,54.0,30.03,ENE,68,0.0,0.0,100,0.00,,---,0.00,VWS V14.00,2013-10-11 07:01:00,
2013-10-11 02:06:00,53.0,53.0,30.03,ENE,68,0.0,0.0,100,0.00,,---,0.00,VWS V14.00,2013-10-11 07:06:00,
2013-10-11 02:11:00,54.0,54.0,30.03,ENE,68,0.0,0.0,100,0.00,,---,0.00,VWS V14.00,2013-10-11 07:11:00,
2013-10-11 02:16:00,54.0,54.0,30.03,ENE,68,0.0,0.0,100,0.00,,---,0.00,VWS V14.00,2013-10-11 07:16:00,
2013-10-11 02:21:00,53.0,53.0,30.03,ENE,68,0.0,0.0,100,0.00,,---,0.00,VWS V14.00,2013-10-11 07:21:00,
2013-10-11 02:26:00,54.0,54.0,30.03,ENE,68,0.0,0.0,100,0.00,,---,0.00,VWS V14.00,2013-10-11 07:26:00,
2013-10-11 02:31:00,54.0,54.0,30.03,ENE,68,0.0,0.0,100,0.00,,---,0.00,VWS V14.00,2013-10-11 07:31:00,
2013-10-11 02:36:00,55.0,55.0,30.03,ESE,112,0.0,0.0,100,0.00,,---,0.00,VWS V14.00,2013-10-11 07:36:00,
2013-10-11 02:41:00,54.0,54.0,30.03,East,90,0.0,0.0,100,0.00,,---,0.00,VWS V14.00,2013-10-11 07:41:00,
2013-10-11 02:46:00,54.0,54.0,30.03,ENE,68,0.0,0.0,100,0.00,,---,0.00,VWS V14.00,2013-10-11 07:46:00,
2013-10-11 02:51:00,54.0,54.0,30.03,ESE,112,0.0,0.0,100,0.00,,---,0.00,VWS V14.00,2013-10-11 07:51:00,
2013-10-11 02:56:00,54.0,54.0,30.03,ESE,112,0.0,0.0,100,0.00,,---,0.00,VWS V14.00,2013-10-11 07:56:00,
2013-10-11 03:01:00,54.0,54.0,30.03,ESE,112,0.0,0.0,100,0.00,,---,0.00,VWS V14.00,2013-10-11 08:01:00,
2013-10-11 03:06:00,54.0,54.0,30.03,ESE,112,0.0,0.0,100,0.00,,---,0.00,VWS V14.00,2013-10-11 08:06:00,
2013-10-11 03:11:00,54.0,54.0,30.03,ESE,112,0.0,0.0,100,0.00,,---,0.00,VWS V14.00,2013-10-11 08:11:00,
2013-10-11 03:16:00,54.0,54.0,30.03,SSE,158,0.0,0.0,100,0.00,,---,0.00,VWS V14.00,2013-10-11 08:16:00,
2013-10-11 03:21:00,54.0,54.0,30.03,SSE,158,0.0,0.0,100,0.00,,---,0.00,VWS V14.00,2013-10-11 08:21:00,
2013-10-11 03:26:00,54.0,54.0,30.03,SSE,158,0.0,0.0,100,0.00,,---,0.00,VWS V14.00,2013-10-11 08:26:00,
2013-10-11 03:31:00,54.0,54.0,30.03,SSE,158,0.0,0.0,100,0.00,,---,0.00,VWS V14.00,2013-10-11 08:31:00,
2013-10-11 03:36:00,55.0,55.0,30.03,SSE,158,0.0,0.0,100,0.00,,---,0.00,VWS V14.00,2013-10-11 08:36:00,
2013-10-11 03:41:00,54.0,54.0,30.03,SE,135,0.0,0.0,100,0.00,,---,0.00,VWS V14.00,2013-10-11 08:41:00,
2013-10-11 03:46:00,54.0,54.0,30.03,SE,135,0.0,0.0,100,0.00,,---,0.00,VWS V14.00,2013-10-11 08:46:00,
2013-10-11 03:51:00,54.0,54.0,30.03,SE,135,0.0,0.0,100,0.00,,---,0.00,VWS V14.00,2013-10-11 08:51:00,
2013-10-11 03:56:00,55.0,55.0,30.03,ESE,112,0.0,0.0,100,0.00,,---,0.00,VWS V14.00,2013-10-11 08:56:00,
2013-10-11 04:01:00,55.0,55.0,30.04,SSE,158,0.0,0.0,100,0.00,,---,0.00,VWS V14.00,2013-10-11 09:01:00,
2013-10-11 04:06:00,55.0,55.0,30.04,SE,135,0.0,0.0,100,0.00,,---,0.00,VWS V14.00,2013-10-11 09:06:00,
2013-10-11 04:11:00,55.0,55.0,30.04,SE,135,0.0,0.0,100,0.00,,---,0.00,VWS V14.00,2013-10-11 09:11:00,
2013-10-11 04:16:00,55.0,55.0,30.04,SE,135,0.0,0.0,100,0.00,,---,0.00,VWS V14.00,2013-10-11 09:16:00,
2013-10-11 04:21:00,55.0,55.0,30.04,ESE,112,2.0,4.0,100,0.00,,---,0.00,VWS V14.00,2013-10-11 09:21:00,
2013-10-11 04:26:00,55.0,55.0,30.04,East,90,3.0,3.0,100,0.00,,---,0.00,VWS V14.00,2013-10-11 09:26:00,
2013-10-11 04:31:00,55.0,55.0,30.04,SE,135,0.0,0.0,100,0.00,,---,0.00,VWS V14.00,2013-10-11 09:31:00,
2013-10-11 04:36:00,55.0,55.0,30.04,ESE,112,2.0,3.0,100,0.00,,---,0.00,VWS V14.00,2013-10-11 09:36:00,
2013-10-11 04:41:00,55.0,55.0,30.04,ESE,112,0.0,0.0,100,0.00,,---,0.00,VWS V14.00,2013-10-11 09:41:00,
2013-10-11 04:46:00,55.0,55.0,30.05,ESE,112,0.0,0.0,100,0.00,,---,0.00,VWS V14.00,2013-10-11 09:46:00,
2013-10-11 04:51:00,55.0,55.0,30.05,SE,135,0.0,0.0,100,0.00,,---,0.00,VWS V14.00,2013-10-11 09:51:00,
2013-10-11 04:56:00,55.0,55.0,30.05,SE,135,0.0,0.0,100,0.00,,---,0.00,VWS V14.00,2013-10-11 09:56:00,
2013-10-11 05:01:00,55.0,55.0,30.05,SE,135,0.0,0.0,100,0.00,,---,0.00,VWS V14.00,2013-10-11 10:01:00,
2013-10-11 05:06:00,55.0,55.0,30.05,SE,135,0.0,0.0,100,0.00,,---,0.00,VWS V14.00,2013-10-11 10:06:00,
2013-10-11 05:11:00,55.0,55.0,30.05,SE,135,0.0,0.0,100,0.00,,---,0.00,VWS V14.00,2013-10-11 10:11:00,
2013-10-11 05:16:00,56.0,56.0,30.05,East,90,0.0,0.0,100,0.00,,---,0.00,VWS V14.00,2013-10-11 10:16:00,
2013-10-11 05:21:00,56.0,56.0,30.05,ESE,112,0.0,0.0,100,0.00,,---,0.00,VWS V14.00,2013-10-11 10:21:00,
2013-10-11 05:26:00,56.0,56.0,30.06,ESE,112,0.0,0.0,100,0.00,,---,0.00,VWS V14.00,2013-10-11 10:26:00,
2013-10-11 05:31:00,56.0,56.0,30.06,ESE,112,0.0,0.0,100,0.00,,---,0.00,VWS V14.00,2013-10-11 10:31:00,
2013-10-11 05:36:00,56.0,56.0,30.06,East,90,3.0,3.0,100,0.00,,---,0.00,VWS V14.00,2013-10-11 10:36:00,
2013-10-11 05:41:00,56.0,56.0,30.06,East,90,0.0,0.0,100,0.00,,---,0.00,VWS V14.00,2013-10-11 10:41:00,
2013-10-11 05:46:00,56.0,56.0,30.06,East,90,0.0,0.0,100,0.00,,---,0.00,VWS V14.00,2013-10-11 10:46:00,
2013-10-11 05:51:00,56.0,56.0,30.06,East,90,0.0,0.0,100,0.00,,---,0.00,VWS V14.00,2013-10-11 10:51:00,
2013-10-11 05:56:00,56.0,56.0,30.06,East,90,0.0,0.0,100,0.00,,---,0.00,VWS V14.00,2013-10-11 10:56:00,
2013-10-11 06:01:00,56.0,56.0,30.06,East,90,0.0,0.0,100,0.00,,---,0.00,VWS V14.00,2013-10-11 11:01:00,
2013-10-11 06:06:00,56.0,56.0,30.06,East,90,0.0,0.0,100,0.00,,---,0.00,VWS V14.00,2013-10-11 11:06:00,
2013-10-11 06:11:00,55.0,55.0,30.06,East,90,0.0,0.0,100,0.00,,---,0.00,VWS V14.00,2013-10-11 11:11:00,
2013-10-11 06:16:00,55.0,55.0,30.06,East,90,0.0,0.0,100,0.00,,---,0.00,VWS V14.00,2013-10-11 11:16:00,
2013-10-11 06:21:00,55.0,55.0,30.06,East,90,3.0,3.0,100,0.00,,---,0.00,VWS V14.00,2013-10-11 11:21:00,
2013-10-11 06:26:00,55.0,55.0,30.06,East,90,0.0,0.0,100,0.00,,---,0.00,VWS V14.00,2013-10-11 11:26:00,
2013-10-11 06:31:00,55.0,55.0,30.06,East,90,0.0,0.0,100,0.00,,---,0.00,VWS V14.00,2013-10-11 11:31:00,
2013-10-11 06:36:00,56.0,56.0,30.07,ESE,112,0.0,0.0,100,0.00,,---,0.00,VWS V14.00,2013-10-11 11:36:00,
2013-10-11 06:41:00,56.0,56.0,30.06,East,90,0.0,0.0,100,0.00,,---,0.00,VWS V14.00,2013-10-11 11:41:00,
2013-10-11 06:46:00,56.0,56.0,30.07,ESE,112,2.0,3.0,100,0.00,,---,0.00,VWS V14.00,2013-10-11 11:46:00,
2013-10-11 06:51:00,55.0,54.7,30.06,ESE,112,3.0,3.0,99,0.00,,---,0.00,VWS V14.00,2013-10-11 11:51:00,
2013-10-11 06:56:00,55.0,54.7,30.07,ESE,112,2.0,2.0,99,0.00,,---,0.00,VWS V14.00,2013-10-11 11:56:00,
2013-10-11 07:01:00,55.0,54.7,30.06,ESE,112,0.0,0.0,99,0.00,,---,0.00,VWS V14.00,2013-10-11 12:01:00,
2013-10-11 07:06:00,55.0,54.7,30.06,ESE,112,0.0,0.0,99,0.00,,---,0.00,VWS V14.00,2013-10-11 12:06:00,
2013-10-11 07:11:00,55.0,54.7,30.06,East,90,0.0,0.0,99,0.00,,---,0.00,VWS V14.00,2013-10-11 12:11:00,
2013-10-11 07:16:00,55.0,54.7,30.07,ESE,112,4.0,4.0,99,0.00,,---,0.00,VWS V14.00,2013-10-11 12:16:00,
2013-10-11 07:21:00,55.0,54.7,30.06,ESE,112,4.0,5.0,99,0.00,,---,0.00,VWS V14.00,2013-10-11 12:21:00,
2013-10-11 07:26:00,56.0,55.7,30.07,East,90,4.0,4.0,99,0.00,,---,0.00,VWS V14.00,2013-10-11 12:26:00,
2013-10-11 07:31:00,56.0,55.7,30.07,SSE,158,2.0,3.0,99,0.00,,---,0.00,VWS V14.00,2013-10-11 12:31:00,
2013-10-11 07:36:00,56.0,55.7,30.07,ESE,112,5.0,5.0,99,0.00,,---,0.00,VWS V14.00,2013-10-11 12:36:00,
2013-10-11 07:41:00,56.0,55.7,30.07,ESE,112,4.0,4.0,99,0.00,,---,0.00,VWS V14.00,2013-10-11 12:41:00,
2013-10-11 07:46:00,57.0,56.7,30.07,SSE,158,0.0,1.0,99,0.00,,---,0.00,VWS V14.00,2013-10-11 12:46:00,
2013-10-11 07:51:00,54.0,53.2,30.07,SSE,158,0.0,0.0,97,0.00,,---,0.00,VWS V14.00,2013-10-11 12:51:00,
2013-10-11 07:56:00,55.0,54.5,30.07,ESE,112,0.0,0.0,98,0.00,,---,0.00,VWS V14.00,2013-10-11 12:56:00,
2013-10-11 08:01:00,56.0,55.7,30.07,ESE,112,3.0,3.0,99,0.00,,---,0.00,VWS V14.00,2013-10-11 13:01:00,
2013-10-11 08:06:00,57.0,56.7,30.07,East,90,2.0,2.0,99,0.00,,---,0.00,VWS V14.00,2013-10-11 13:06:00,
2013-10-11 08:11:00,58.0,57.7,30.07,East,90,3.0,5.0,99,0.00,,---,0.00,VWS V14.00,2013-10-11 13:11:00,
2013-10-11 08:16:00,58.0,57.4,30.07,SSE,158,1.0,2.0,98,0.00,,---,0.00,VWS V14.00,2013-10-11 13:16:00,
2013-10-11 08:21:00,59.0,58.2,30.07,SSE,158,1.0,1.0,97,0.00,,---,0.00,VWS V14.00,2013-10-11 13:21:00,
2013-10-11 08:26:00,59.0,58.2,30.08,SE,135,3.0,3.0,97,0.00,,---,0.00,VWS V14.00,2013-10-11 13:26:00,
2013-10-11 08:31:00,59.0,57.9,30.07,ESE,112,1.0,2.0,96,0.00,,---,0.00,VWS V14.00,2013-10-11 13:31:00,
2013-10-11 08:36:00,60.0,58.6,30.07,SE,135,3.0,4.0,95,0.00,,---,0.00,VWS V14.00,2013-10-11 13:36:00,
2013-10-11 08:41:00,60.0,58.3,30.07,SSE,158,4.0,5.0,94,0.00,,---,0.00,VWS V14.00,2013-10-11 13:41:00,
2013-10-11 08:46:00,60.0,58.3,30.07,SE,135,5.0,5.0,94,0.00,,---,0.00,VWS V14.00,2013-10-11 13:46:00,
2013-10-11 08:51:00,60.0,57.7,30.07,SE,135,5.0,6.0,92,0.00,,---,0.00,VWS V14.00,2013-10-11 13:51:00,
2013-10-11 08:56:00,61.0,58.7,30.07,SE,135,5.0,6.0,92,0.00,,---,0.00,VWS V14.00,2013-10-11 13:56:00,
2013-10-11 09:01:00,61.0,58.4,30.07,SSE,158,5.0,5.0,91,0.00,,---,0.00,VWS V14.00,2013-10-11 14:01:00,
2013-10-11 09:06:00,61.0,58.0,30.07,East,90,4.0,5.0,90,0.00,,---,0.00,VWS V14.00,2013-10-11 14:06:00,
2013-10-11 09:10:00,61.0,58.0,30.07,SE,135,3.0,5.0,90,0.00,,---,0.00,VWS V14.00,2013-10-11 14:10:00,
2013-10-11 09:15:00,61.0,57.7,30.07,SSE,158,5.0,5.0,89,0.00,,---,0.00,VWS V14.00,2013-10-11 14:15:00,
2013-10-11 09:20:00,62.0,58.4,30.07,ESE,112,6.0,6.0,88,0.00,,---,0.00,VWS V14.00,2013-10-11 14:20:00,
2013-10-11 09:25:00,62.0,58.4,30.07,SE,135,0.0,0.0,88,0.00,,---,0.00,VWS V14.00,2013-10-11 14:25:00,
2013-10-11 09:30:00,63.0,59.1,30.07,SSE,158,3.0,3.0,87,0.00,,---,0.00,VWS V14.00,2013-10-11 14:30:00,
2013-10-11 09:35:00,64.0,60.1,30.07,ESE,112,5.0,5.0,87,0.00,,---,0.00,VWS V14.00,2013-10-11 14:35:00,
2013-10-11 09:40:00,64.0,59.4,30.07,SE,135,7.0,8.0,85,0.00,,---,0.00,VWS V14.00,2013-10-11 14:40:00,
2013-10-11 09:45:00,64.0,59.1,30.07,SE,135,0.0,1.0,84,0.00,,---,0.00,VWS V14.00,2013-10-11 14:45:00,
2013-10-11 09:50:00,65.0,60.0,30.07,SSE,158,0.0,0.0,84,0.00,,---,0.00,VWS V14.00,2013-10-11 14:50:00,
2013-10-11 09:55:00,65.0,60.0,30.07,ESE,112,0.0,0.0,84,0.00,,---,0.00,VWS V14.00,2013-10-11 14:55:00,
2013-10-11 10:00:00,66.0,60.3,30.07,ESE,112,5.0,5.0,82,0.00,,---,0.00,VWS V14.00,2013-10-11 15:00:00,
2013-10-11 10:05:00,66.0,60.0,30.07,SSE,158,5.0,7.0,81,0.00,,---,0.00,VWS V14.00,2013-10-11 15:05:00,
2013-10-11 10:10:00,66.0,59.7,30.07,SE,135,7.0,8.0,80,0.00,,---,0.00,VWS V14.00,2013-10-11 15:10:00,
2013-10-11 10:15:00,67.0,60.6,30.07,South,180,0.0,0.0,80,0.00,,---,0.00,VWS V14.00,2013-10-11 15:15:00,
2013-10-11 10:20:00,67.0,60.3,30.07,South,180,0.0,1.0,79,0.00,,---,0.00,VWS V14.00,2013-10-11 15:20:00,
2013-10-11 10:25:00,67.0,59.9,30.07,SSW,202,0.0,6.0,78,0.00,,---,0.00,VWS V14.00,2013-10-11 15:25:00,
2013-10-11 10:30:00,68.0,61.2,30.07,South,180,0.0,8.0,79,0.00,,---,0.00,VWS V14.00,2013-10-11 15:30:00,
2013-10-11 10:35:00,68.0,60.2,30.06,SSW,202,0.0,1.0,76,0.00,,---,0.00,VWS V14.00,2013-10-11 15:35:00,
2013-10-11 10:40:00,69.0,61.5,30.06,SSE,158,0.0,0.0,77,0.00,,---,0.00,VWS V14.00,2013-10-11 15:40:00,
2013-10-11 10:45:00,69.0,60.8,30.06,ESE,112,8.0,8.0,75,0.00,,---,0.00,VWS V14.00,2013-10-11 15:45:00,
2013-10-11 10:50:00,69.0,60.8,30.07,SE,135,0.0,1.0,75,0.00,,---,0.00,VWS V14.00,2013-10-11 15:50:00,
2013-10-11 10:55:00,69.0,60.8,30.07,SE,135,0.0,10.0,75,0.00,,---,0.00,VWS V14.00,2013-10-11 15:55:00,
2013-10-11 11:00:00,69.0,61.1,30.06,SSW,202,0.0,0.0,76,0.00,,---,0.00,VWS V14.00,2013-10-11 16:00:00,
2013-10-11 11:05:00,70.0,61.3,30.06,SSW,202,0.0,1.0,74,0.00,,---,0.00,VWS V14.00,2013-10-11 16:05:00,
2013-10-11 11:10:00,70.0,61.0,30.06,SSW,202,3.0,3.0,73,0.00,,---,0.00,VWS V14.00,2013-10-11 16:10:00,
2013-10-11 11:15:00,70.0,61.0,30.06,South,180,0.0,1.0,73,0.00,,---,0.00,VWS V14.00,2013-10-11 16:15:00,
2013-10-11 11:20:00,70.0,60.6,30.06,South,180,6.0,11.0,72,0.00,,---,0.00,VWS V14.00,2013-10-11 16:20:00,
2013-10-11 11:25:00,71.0,61.1,30.06,SSE,158,4.0,8.0,71,0.00,,---,0.00,VWS V14.00,2013-10-11 16:25:00,
2013-10-11 11:30:00,71.0,60.3,30.06,SSE,158,0.0,8.0,69,0.00,,---,0.00,VWS V14.00,2013-10-11 16:30:00,
2013-10-11 11:35:00,71.0,60.3,30.06,South,180,0.0,3.0,69,0.00,,---,0.00,VWS V14.00,2013-10-11 16:35:00,
2013-10-11 11:40:00,72.0,60.0,30.05,SW,225,0.0,4.0,66,0.00,,---,0.00,VWS V14.00,2013-10-11 16:40:00,
2013-10-11 11:45:00,71.0,59.1,30.06,SSW,202,0.0,0.0,66,0.00,,---,0.00,VWS V14.00,2013-10-11 16:45:00,
2013-10-11 11:50:00,71.0,59.1,30.05,South,180,6.0,9.0,66,0.00,,---,0.00,VWS V14.00,2013-10-11 16:50:00,
2013-10-11 11:55:00,71.0,59.1,30.05,SSW,202,0.0,0.0,66,0.00,,---,0.00,VWS V14.00,2013-10-11 16:55:00,
2013-10-11 12:00:00,71.0,58.7,30.05,SSE,158,1.0,3.0,65,0.00,,---,0.00,VWS V14.00,2013-10-11 17:00:00,
2013-10-11 12:05:00,71.0,58.7,30.05,South,180,0.0,12.0,65,0.00,,---,0.00,VWS V14.00,2013-10-11 17:05:00,
2013-10-11 12:10:00,72.0,59.2,30.05,South,180,0.0,9.0,64,0.00,,---,0.00,VWS V14.00,2013-10-11 17:10:00,
2013-10-11 12:15:00,72.0,58.7,30.05,SSW,202,0.0,1.0,63,0.00,,---,0.00,VWS V14.00,2013-10-11 17:15:00,
2013-10-11 12:20:00,71.0,58.2,30.05,South,180,0.0,1.0,64,0.00,,---,0.00,VWS V14.00,2013-10-11 17:20:00,
2013-10-11 12:25:00,72.0,58.7,30.04,SW,225,0.0,0.0,63,0.00,,---,0.00,VWS V14.00,2013-10-11 17:25:00,
2013-10-11 12:30:00,73.0,57.4,30.04,SSW,202,0.0,12.0,58,0.00,,---,0.00,VWS V14.00,2013-10-11 17:30:00,
2013-10-11 12:35:00,73.0,58.3,30.04,SSE,158,8.0,8.0,60,0.00,,---,0.00,VWS V14.00,2013-10-11 17:35:00,
2013-10-11 12:40:00,73.0,58.3,30.04,SSE,158,0.0,0.0,60,0.00,,---,0.00,VWS V14.00,2013-10-11 17:40:00,
2013-10-11 12:45:00,74.0,58.3,30.04,South,180,0.0,0.0,58,0.00,,---,0.00,VWS V14.00,2013-10-11 17:45:00,
2013-10-11 12:50:00,73.0,56.4,30.04,SSW,202,0.0,11.0,56,0.00,,---,0.00,VWS V14.00,2013-10-11 17:50:00,
2013-10-11 12:55:00,73.0,56.4,30.03,South,180,0.0,4.0,56,0.00,,---,0.00,VWS V14.00,2013-10-11 17:55:00,
2013-10-11 13:00:00,74.0,57.3,30.03,South,180,13.0,14.0,56,0.00,,---,0.00,VWS V14.00,2013-10-11 18:00:00,
2013-10-11 13:05:00,73.0,55.9,30.03,SW,225,6.0,11.0,55,0.00,,---,0.00,VWS V14.00,2013-10-11 18:05:00,
2013-10-11 13:10:00,74.0,57.3,30.03,SSW,202,9.0,13.0,56,0.00,,---,0.00,VWS V14.00,2013-10-11 18:10:00,
2013-10-11 13:15:00,74.0,56.8,30.03,SW,225,9.0,11.0,55,0.00,,---,0.00,VWS V14.00,2013-10-11 18:15:00,
2013-10-11 13:20:00,73.0,54.4,30.03,SSW,202,6.0,9.0,52,0.00,,---,0.00,VWS V14.00,2013-10-11 18:20:00,
2013-10-11 13:25:00,73.0,56.4,30.02,WSW,248,9.0,9.0,56,0.00,,---,0.00,VWS V14.00,2013-10-11 18:25:00,
2013-10-11 13:30:00,73.0,55.9,30.02,South,180,12.0,12.0,55,0.00,,---,0.00,VWS V14.00,2013-10-11 18:30:00,
2013-10-11 13:35:00,74.0,56.3,30.02,SW,225,6.0,10.0,54,0.00,,---,0.00,VWS V14.00,2013-10-11 18:35:00,
2013-10-11 13:40:00,74.0,54.7,30.02,SW,225,0.0,0.0,51,0.00,,---,0.00,VWS V14.00,2013-10-11 18:40:00,
2013-10-11 13:45:00,74.0,54.7,30.02,South,180,6.0,10.0,51,0.00,,---,0.00,VWS V14.00,2013-10-11 18:45:00,
2013-10-11 13:50:00,74.0,54.2,30.01,SSW,202,1.0,9.0,50,0.00,,---,0.00,VWS V14.00,2013-10-11 18:50:00,
2013-10-11 13:55:00,74.0,54.2,30.01,SSW,202,10.0,11.0,50,0.00,,---,0.00,VWS V14.00,2013-10-11 18:55:00,
2013-10-11 14:00:00,74.0,54.7,30.01,SSW,202,0.0,0.0,51,0.00,,---,0.00,VWS V14.00,2013-10-11 19:00:00,
2013-10-11 14:05:00,74.0,54.2,30.01,SW,225,6.0,10.0,50,0.00,,---,0.00,VWS V14.00,2013-10-11 19:05:00,
2013-10-11 14:10:00,73.0,53.8,30.01,West,270,5.0,5.0,51,0.00,,---,0.00,VWS V14.00,2013-10-11 19:10:00,
2013-10-11 14:15:00,74.0,54.2,30.01,SW,225,0.0,1.0,50,0.00,,---,0.00,VWS V14.00,2013-10-11 19:15:00,
2013-10-11 14:20:00,74.0,53.7,30.01,SSE,158,0.0,0.0,49,0.00,,---,0.00,VWS V14.00,2013-10-11 19:20:00,
2013-10-11 14:25:00,74.0,52.5,30.01,SW,225,8.0,10.0,47,0.00,,---,0.00,VWS V14.00,2013-10-11 19:25:00,
2013-10-11 14:30:00,74.0,53.1,30.01,SW,225,0.0,2.0,48,0.00,,---,0.00,VWS V14.00,2013-10-11 19:30:00,
2013-10-11 14:35:00,75.0,54.0,30.01,WSW,248,0.0,0.0,48,0.00,,---,0.00,VWS V14.00,2013-10-11 19:35:00,
2013-10-11 14:40:00,75.0,54.0,30.01,SSW,202,5.0,5.0,48,0.00,,---,0.00,VWS V14.00,2013-10-11 19:40:00,
2013-10-11 14:45:00,75.0,54.0,30.01,South,180,0.0,1.0,48,0.00,,---,0.00,VWS V14.00,2013-10-11 19:45:00,
2013-10-11 14:50:00,75.0,54.0,30.01,SSW,202,0.0,4.0,48,0.00,,---,0.00,VWS V14.00,2013-10-11 19:50:00,
2013-10-11 14:55:00,74.0,53.7,30.01,South,180,0.0,2.0,49,0.00,,---,0.00,VWS V14.00,2013-10-11 19:55:00,
2013-10-11 15:00:00,74.0,53.7,30.00,SW,225,0.0,0.0,49,0.00,,---,0.00,VWS V14.00,2013-10-11 20:00:00,
2013-10-11 15:05:00,75.0,55.1,30.00,South,180,0.0,1.0,50,0.00,,---,0.00,VWS V14.00,2013-10-11 20:05:00,
2013-10-11 15:10:00,75.0,55.1,30.00,SSE,158,0.0,0.0,50,0.00,,---,0.00,VWS V14.00,2013-10-11 20:10:00,
2013-10-11 15:15:00,75.0,54.6,30.00,SSW,202,0.0,0.0,49,0.00,,---,0.00,VWS V14.00,2013-10-11 20:15:00,
2013-10-11 15:20:00,75.0,54.6,30.00,SSE,158,0.0,0.0,49,0.00,,---,0.00,VWS V14.00,2013-10-11 20:20:00,
2013-10-11 15:25:00,75.0,55.1,30.00,SE,135,0.0,5.0,50,0.00,,---,0.00,VWS V14.00,2013-10-11 20:25:00,
2013-10-11 15:30:00,74.0,54.2,30.00,South,180,0.0,0.0,50,0.00,,---,0.00,VWS V14.00,2013-10-11 20:30:00,
2013-10-11 15:35:00,75.0,54.6,30.00,South,180,0.0,0.0,49,0.00,,---,0.00,VWS V14.00,2013-10-11 20:35:00,
2013-10-11 15:40:00,75.0,54.6,30.00,South,180,0.0,0.0,49,0.00,,---,0.00,VWS V14.00,2013-10-11 20:40:00,
2013-10-11 15:45:00,75.0,55.1,30.00,SE,135,0.0,0.0,50,0.00,,---,0.00,VWS V14.00,2013-10-11 20:45:00,
2013-10-11 15:50:00,75.0,55.1,30.00,SSW,202,0.0,4.0,50,0.00,,---,0.00,VWS V14.00,2013-10-11 20:50:00,
2013-10-11 15:55:00,74.0,54.2,29.99,South,180,0.0,4.0,50,0.00,,---,0.00,VWS V14.00,2013-10-11 20:55:00,
2013-10-11 16:00:00,74.0,55.3,29.99,SSE,158,0.0,0.0,52,0.00,,---,0.00,VWS V14.00,2013-10-11 21:00:00,
2013-10-11 16:05:00,74.0,54.7,29.99,SSW,202,0.0,0.0,51,0.00,,---,0.00,VWS V14.00,2013-10-11 21:05:00,
2013-10-11 16:10:00,74.0,54.7,29.99,South,180,0.0,0.0,51,0.00,,---,0.00,VWS V14.00,2013-10-11 21:10:00,
2013-10-11 16:15:00,74.0,53.7,30.00,South,180,0.0,0.0,49,0.00,,---,0.00,VWS V14.00,2013-10-11 21:15:00,
2013-10-11 16:20:00,74.0,53.7,29.99,East,90,0.0,0.0,49,0.00,,---,0.00,VWS V14.00,2013-10-11 21:20:00,
2013-10-11 16:25:00,74.0,54.7,29.99,SSW,202,0.0,0.0,51,0.00,,---,0.00,VWS V14.00,2013-10-11 21:25:00,
2013-10-11 16:30:00,74.0,54.7,29.99,SSW,202,0.0,0.0,51,0.00,,---,0.00,VWS V14.00,2013-10-11 21:30:00,
2013-10-11 16:35:00,74.0,54.7,29.99,SSW,202,0.0,0.0,51,0.00,,---,0.00,VWS V14.00,2013-10-11 21:35:00,
2013-10-11 16:40:00,74.0,53.1,29.99,SSW,202,0.0,0.0,48,0.00,,---,0.00,VWS V14.00,2013-10-11 21:40:00,
2013-10-11 16:45:00,74.0,54.2,29.99,South,180,0.0,0.0,50,0.00,,---,0.00,VWS V14.00,2013-10-11 21:45:00,
2013-10-11 16:50:00,74.0,54.2,29.99,SE,135,0.0,1.0,50,0.00,,---,0.00,VWS V14.00,2013-10-11 21:50:00,
2013-10-11 16:55:00,74.0,54.7,29.99,SSE,158,0.0,0.0,51,0.00,,---,0.00,VWS V14.00,2013-10-11 21:55:00,
2013-10-11 17:00:00,74.0,55.3,29.99,South,180,0.0,1.0,52,0.00,,---,0.00,VWS V14.00,2013-10-11 22:00:00,
2013-10-11 17:05:00,74.0,55.3,29.99,SSE,158,0.0,0.0,52,0.00,,---,0.00,VWS V14.00,2013-10-11 22:05:00,
2013-10-11 17:10:00,73.0,53.8,29.99,South,180,0.0,0.0,51,0.00,,---,0.00,VWS V14.00,2013-10-11 22:10:00,
2013-10-11 17:15:00,73.0,54.4,29.99,SSE,158,0.0,0.0,52,0.00,,---,0.00,VWS V14.00,2013-10-11 22:15:00,
2013-10-11 17:20:00,73.0,54.4,29.99,SE,135,0.0,0.0,52,0.00,,---,0.00,VWS V14.00,2013-10-11 22:20:00,
2013-10-11 17:25:00,73.0,54.9,29.99,SSE,158,0.0,0.0,53,0.00,,---,0.00,VWS V14.00,2013-10-11 22:25:00,
2013-10-11 17:30:00,73.0,54.9,29.99,SSE,158,0.0,0.0,53,0.00,,---,0.00,VWS V14.00,2013-10-11 22:30:00,
2013-10-11 17:35:00,72.0,54.5,29.99,SSE,158,0.0,0.0,54,0.00,,---,0.00,VWS V14.00,2013-10-11 22:35:00,
2013-10-11 17:40:00,72.0,54.5,29.99,SE,135,0.0,0.0,54,0.00,,---,0.00,VWS V14.00,2013-10-11 22:40:00,
2013-10-11 17:45:00,72.0,55.5,29.99,SSE,158,0.0,0.0,56,0.00,,---,0.00,VWS V14.00,2013-10-11 22:45:00,
2013-10-11 17:50:00,71.0,55.0,29.99,SE,135,0.0,0.0,57,0.00,,---,0.00,VWS V14.00,2013-10-11 22:50:00,
2013-10-11 17:55:00,71.0,55.5,29.99,SSE,158,0.0,0.0,58,0.00,,---,0.00,VWS V14.00,2013-10-11 22:55:00,
2013-10-11 18:00:00,71.0,56.0,29.99,SSE,158,0.0,0.0,59,0.00,,---,0.00,VWS V14.00,2013-10-11 23:00:00,
2013-10-11 18:05:00,70.0,55.0,29.99,SSE,158,0.0,0.0,59,0.00,,---,0.00,VWS V14.00,2013-10-11 23:05:00,
2013-10-11 18:10:00,70.0,55.0,29.99,ESE,112,0.0,0.0,59,0.00,,---,0.00,VWS V14.00,2013-10-11 23:10:00,
2013-10-11 18:15:00,70.0,55.5,29.99,SSE,158,0.0,0.0,60,0.00,,---,0.00,VWS V14.00,2013-10-11 23:15:00,
2013-10-11 18:20:00,69.0,55.0,29.99,ESE,112,0.0,0.0,61,0.00,,---,0.00,VWS V14.00,2013-10-11 23:20:00,
2013-10-11 18:25:00,69.0,55.5,29.99,ESE,112,0.0,0.0,62,0.00,,---,0.00,VWS V14.00,2013-10-11 23:25:00,
2013-10-11 18:30:00,68.0,55.4,29.99,ESE,112,0.0,0.0,64,0.00,,---,0.00,VWS V14.00,2013-10-11 23:30:00,
2013-10-11 18:35:00,68.0,55.8,29.99,ESE,112,0.0,0.0,65,0.00,,---,0.00,VWS V14.00,2013-10-11 23:35:00,
2013-10-11 18:40:00,67.0,55.3,29.99,ESE,112,0.0,0.0,66,0.00,,---,0.00,VWS V14.00,2013-10-11 23:40:00,
2013-10-11 18:45:00,66.0,54.7,29.99,ESE,112,0.0,0.0,67,0.00,,---,0.00,VWS V14.00,2013-10-11 23:45:00,
2013-10-11 18:50:00,66.0,55.2,29.99,SE,135,0.0,0.0,68,0.00,,---,0.00,VWS V14.00,2013-10-11 23:50:00,
2013-10-11 18:55:00,66.0,55.2,29.99,ESE,112,0.0,0.0,68,0.00,,---,0.00,VWS V14.00,2013-10-11 23:55:00,
2013-10-11 19:00:00,66.0,55.2,29.99,East,90,0.0,0.0,68,0.00,,---,0.00,VWS V14.00,2013-10-12 00:00:00,
2013-10-11 19:05:00,66.0,55.2,29.99,East,90,0.0,0.0,68,0.00,,---,0.00,VWS V14.00,2013-10-12 00:05:00,
2013-10-11 19:10:00,65.0,55.0,29.99,ESE,112,0.0,0.0,70,0.00,,---,0.00,VWS V14.00,2013-10-12 00:10:00,
2013-10-11 19:15:00,65.0,55.4,29.99,ESE,112,0.0,0.0,71,0.00,,---,0.00,VWS V14.00,2013-10-12 00:15:00,
2013-10-11 19:20:00,64.0,54.8,29.99,ESE,112,0.0,0.0,72,0.00,,---,0.00,VWS V14.00,2013-10-12 00:20:00,
2013-10-11 19:25:00,64.0,55.2,29.99,East,90,0.0,0.0,73,0.00,,---,0.00,VWS V14.00,2013-10-12 00:25:00,
2013-10-11 19:30:00,64.0,55.6,29.99,SE,135,0.0,0.0,74,0.00,,---,0.00,VWS V14.00,2013-10-12 00:30:00,
2013-10-11 19:35:00,64.0,55.9,29.99,ESE,112,0.0,0.0,75,0.00,,---,0.00,VWS V14.00,2013-10-12 00:35:00,
2013-10-11 19:40:00,64.0,56.3,29.99,ESE,112,0.0,0.0,76,0.00,,---,0.00,VWS V14.00,2013-10-12 00:40:00,
2013-10-11 19:45:00,64.0,56.3,29.99,ESE,112,0.0,0.0,76,0.00,,---,0.00,VWS V14.00,2013-10-12 00:45:00,
2013-10-11 19:50:00,63.0,55.7,30.00,ESE,112,0.0,0.0,77,0.00,,---,0.00,VWS V14.00,2013-10-12 00:50:00,
2013-10-11 19:55:00,63.0,56.0,30.00,ESE,112,0.0,0.0,78,0.00,,---,0.00,VWS V14.00,2013-10-12 00:55:00,
2013-10-11 20:00:00,63.0,56.0,29.99,SE,135,0.0,0.0,78,0.00,,---,0.00,VWS V14.00,2013-10-12 01:00:00,
2013-10-11 20:05:00,63.0,56.4,29.99,East,90,0.0,0.0,79,0.00,,---,0.00,VWS V14.00,2013-10-12 01:05:00,
2013-10-11 20:10:00,63.0,56.4,29.99,East,90,0.0,0.0,79,0.00,,---,0.00,VWS V14.00,2013-10-12 01:10:00,
2013-10-11 20:15:00,63.0,56.7,29.99,ESE,112,0.0,0.0,80,0.00,,---,0.00,VWS V14.00,2013-10-12 01:15:00,
2013-10-11 20:20:00,63.0,56.7,29.99,ESE,112,0.0,0.0,80,0.00,,---,0.00,VWS V14.00,2013-10-12 01:20:00,
2013-10-11 20:25:00,63.0,57.1,30.00,East,90,0.0,0.0,81,0.00,,---,0.00,VWS V14.00,2013-10-12 01:25:00,
2013-10-11 20:30:00,63.0,57.1,30.00,SE,135,0.0,0.0,81,0.00,,---,0.00,VWS V14.00,2013-10-12 01:30:00,
2013-10-11 20:35:00,62.0,56.5,30.00,ESE,112,0.0,1.0,82,0.00,,---,0.00,VWS V14.00,2013-10-12 01:35:00,
2013-10-11 20:40:00,62.0,56.5,29.99,ESE,112,0.0,0.0,82,0.00,,---,0.00,VWS V14.00,2013-10-12 01:40:00,
2013-10-11 20:45:00,62.0,56.8,30.00,ESE,112,0.0,0.0,83,0.00,,---,0.00,VWS V14.00,2013-10-12 01:45:00,
2013-10-11 20:50:00,62.0,56.8,30.00,ESE,112,0.0,0.0,83,0.00,,---,0.00,VWS V14.00,2013-10-12 01:50:00,
2013-10-11 20:55:00,62.0,57.1,30.00,SE,135,0.0,0.0,84,0.00,,---,0.00,VWS V14.00,2013-10-12 01:55:00,
2013-10-11 21:00:00,62.0,57.1,30.00,ESE,112,0.0,4.0,84,0.00,,---,0.00,VWS V14.00,2013-10-12 02:00:00,
2013-10-11 21:05:00,62.0,57.1,30.00,ESE,112,0.0,0.0,84,0.00,,---,0.00,VWS V14.00,2013-10-12 02:05:00,
2013-10-11 21:10:00,62.0,57.5,30.00,SE,135,0.0,0.0,85,0.00,,---,0.00,VWS V14.00,2013-10-12 02:10:00,
2013-10-11 21:15:00,62.0,57.5,30.00,ESE,112,0.0,1.0,85,0.00,,---,0.00,VWS V14.00,2013-10-12 02:15:00,
2013-10-11 21:20:00,62.0,57.5,30.00,SSE,158,0.0,0.0,85,0.00,,---,0.00,VWS V14.00,2013-10-12 02:20:00,
2013-10-11 21:25:00,61.0,56.5,30.00,ESE,112,0.0,0.0,85,0.00,,---,0.00,VWS V14.00,2013-10-12 02:25:00,
2013-10-11 21:30:00,61.0,56.8,30.01,SSE,158,0.0,0.0,86,0.00,,---,0.00,VWS V14.00,2013-10-12 02:30:00,
2013-10-11 21:35:00,61.0,56.8,30.01,SE,135,0.0,0.0,86,0.00,,---,0.00,VWS V14.00,2013-10-12 02:35:00,
2013-10-11 21:40:00,61.0,56.8,30.01,SE,135,0.0,0.0,86,0.00,,---,0.00,VWS V14.00,2013-10-12 02:40:00,
2013-10-11 21:45:00,61.0,57.1,30.01,SSE,158,0.0,0.0,87,0.00,,---,0.00,VWS V14.00,2013-10-12 02:45:00,
2013-10-11 21:50:00,61.0,57.1,30.01,SE,135,0.0,0.0,87,0.00,,---,0.00,VWS V14.00,2013-10-12 02:50:00,
2013-10-11 21:55:00,61.0,57.1,30.01,ESE,112,0.0,0.0,87,0.00,,---,0.00,VWS V14.00,2013-10-12 02:55:00,
2013-10-11 22:00:00,60.0,56.4,30.01,ESE,112,0.0,0.0,88,0.00,,---,0.00,VWS V14.00,2013-10-12 03:00:00,
2013-10-11 22:05:00,60.0,56.4,30.01,SSE,158,0.0,0.0,88,0.00,,---,0.00,VWS V14.00,2013-10-12 03:05:00,
2013-10-11 22:10:00,60.0,56.4,30.01,East,90,0.0,0.0,88,0.00,,---,0.00,VWS V14.00,2013-10-12 03:10:00,
2013-10-11 22:15:00,60.0,56.8,30.01,SSE,158,0.0,0.0,89,0.00,,---,0.00,VWS V14.00,2013-10-12 03:15:00,
2013-10-11 22:20:00,60.0,56.8,30.01,ESE,112,0.0,0.0,89,0.00,,---,0.00,VWS V14.00,2013-10-12 03:20:00,
2013-10-11 22:25:00,60.0,56.8,30.01,SSE,158,0.0,0.0,89,0.00,,---,0.00,VWS V14.00,2013-10-12 03:25:00,
2013-10-11 22:30:00,60.0,56.8,30.01,SE,135,0.0,0.0,89,0.00,,---,0.00,VWS V14.00,2013-10-12 03:30:00,
2013-10-11 22:35:00,60.0,56.8,30.01,SE,135,0.0,0.0,89,0.00,,---,0.00,VWS V14.00,2013-10-12 03:35:00,
2013-10-11 22:40:00,60.0,57.1,30.01,ESE,112,0.0,0.0,90,0.00,,---,0.00,VWS V14.00,2013-10-12 03:40:00,
2013-10-11 22:45:00,60.0,57.1,30.01,SE,135,0.0,0.0,90,0.00,,---,0.00,VWS V14.00,2013-10-12 03:45:00,
2013-10-11 22:50:00,60.0,57.1,30.01,SSE,158,0.0,0.0,90,0.00,,---,0.00,VWS V14.00,2013-10-12 03:50:00,
2013-10-11 22:55:00,60.0,57.1,30.01,SE,135,0.0,0.0,90,0.00,,---,0.00,VWS V14.00,2013-10-12 03:55:00,
2013-10-11 23:00:00,60.0,57.1,30.01,SSE,158,0.0,0.0,90,0.00,,---,0.00,VWS V14.00,2013-10-12 04:00:00,
2013-10-11 23:01:00,60.0,57.1,30.01,SSE,158,0.0,0.0,90,0.00,,---,0.00,VWS V14.00,2013-10-12 04:01:00,
2013-10-11 23:06:00,60.0,57.1,30.01,SSE,158,0.0,0.0,90,0.00,,---,0.00,VWS V14.00,2013-10-12 04:06:00,
2013-10-11 23:11:00,60.0,57.1,30.01,ESE,112,0.0,0.0,90,0.00,,---,0.00,VWS V14.00,2013-10-12 04:11:00,
2013-10-11 23:16:00,60.0,56.8,30.01,SE,135,0.0,0.0,89,0.00,,---,0.00,VWS V14.00,2013-10-12 04:16:00,
2013-10-11 23:21:00,60.0,56.8,30.02,ESE,112,0.0,0.0,89,0.00,,---,0.00,VWS V14.00,2013-10-12 04:21:00,
2013-10-11 23:26:00,60.0,56.8,30.02,SE,135,0.0,0.0,89,0.00,,---,0.00,VWS V14.00,2013-10-12 04:26:00,
2013-10-11 23:31:00,60.0,56.8,30.02,SSE,158,0.0,0.0,89,0.00,,---,0.00,VWS V14.00,2013-10-12 04:31:00,
2013-10-11 23:36:00,60.0,56.8,30.02,ESE,112,0.0,0.0,89,0.00,,---,0.00,VWS V14.00,2013-10-12 04:36:00,
2013-10-11 23:41:00,60.0,56.8,30.02,SSE,158,0.0,0.0,89,0.00,,---,0.00,VWS V14.00,2013-10-12 04:41:00,
2013-10-11 23:46:00,60.0,57.1,30.01,SE,135,0.0,0.0,90,0.00,,---,0.00,VWS V14.00,2013-10-12 04:46:00,
2013-10-11 23:51:00,60.0,57.1,30.01,SSE,158,0.0,1.0,90,0.00,,---,0.00,VWS V14.00,2013-10-12 04:51:00,
2013-10-11 23:56:00,60.0,57.1,30.02,SE,135,0.0,0.0,90,0.00,,---,0.00,VWS V14.00,2013-10-12 04:56:00,